NORTHEAST SUFFOLK  -  Winter Weather Advisory Winter Weather Advisory        NORTHERN NASSAU  -  Winter Weather Advisory Winter Weather Advisory        NORTHWEST SUFFOLK  -  Winter Weather Advisory Winter Weather Advisory        SOUTHEAST SUFFOLK  -  Winter Weather Advisory Winter Weather Advisory        SOUTHERN NASSAU  -  Winter Weather Advisory Winter Weather Advisory        SOUTHWEST SUFFOLK  -  Winter Weather Advisory Winter Weather Advisory      

Active alerts

Northern Nassau
  Details for Northern Nassau Winter Weather Advisory
Southern Nassau
  Details for Southern Nassau Winter Weather Advisory
Northwest Suffolk
  Details for Northwest Suffolk Winter Weather Advisory
Southwest Suffolk
  Details for Southwest Suffolk Winter Weather Advisory
Northeast Suffolk
  Details for Northeast Suffolk Winter Weather Advisory
Southeast Suffolk
  Details for Southeast Suffolk Winter Weather Advisory


WXM80 ListenWXM80 Stop

You find our weather info also at:

UK Metoffice

WeatherCloud

Weather Underground

Northeastern Weather Network

AWEKAS

Citizen Weather Observer Program (CWOP)

HAMweather, WeatherForYou, PWS Weather


Weather Underground History page Text

Daily Summary for August 28, 2017 Units:  English    Metric   Both
« Previous Day
Next Day »
Daily Weekly Monthly Yearly Custom
  High: Low: Average:
Temperature: 77.4 °F 57.1 °F 66.7 °F
Dew Point: 62.0 °F 51.3 °F 56.8 °F
Humidity: 97 % 43 % 73 %
Wind Speed: 5.7 mph 0.0 mph 1.1 mph
Wind Gust: 10.4 mph - -
Wind:- - East
Pressure: 30.28 in 30.19 in -
Precipitation: 0.00 in    
Historical Graphs
 
 
Tabular Data for August 28, 2017
Time Temperature Dew Point Pressure Wind Wind Speed Wind Gust Humidity Rainfall Rate (Hourly)
00:01 62.1 °F 55.2 °F 30.23 in Calm     78 % 0.00 in
00:06 62.0 °F 55.1 °F 30.23 in Calm     78 % 0.00 in
00:11 61.8 °F 55.2 °F 30.23 in Calm     79 % 0.00 in
00:16 61.7 °F 55.1 °F 30.23 in Calm     79 % 0.00 in
00:21 61.5 °F 55.3 °F 30.23 in Calm     80 % 0.00 in
00:26 61.3 °F 55.1 °F 30.23 in Calm     80 % 0.00 in
00:31 61.2 °F 55.0 °F 30.23 in Calm     80 % 0.00 in
00:36 61.1 °F 55.2 °F 30.23 in Calm     81 % 0.00 in
00:41 60.9 °F 55.0 °F 30.23 in Calm     81 % 0.00 in
00:46 60.7 °F 54.8 °F 30.23 in Calm     81 % 0.00 in
00:51 60.6 °F 55.1 °F 30.23 in Calm     82 % 0.00 in
00:56 60.4 °F 54.9 °F 30.23 in Calm     82 % 0.00 in
01:01 60.2 °F 55.0 °F 30.23 in Calm     83 % 0.00 in
01:06 60.1 °F 54.6 °F 30.22 in Calm     82 % 0.00 in
01:11 59.9 °F 54.7 °F 30.22 in Calm     83 % 0.00 in
01:16 59.8 °F 54.6 °F 30.22 in Calm     83 % 0.00 in
01:21 59.7 °F 54.9 °F 30.22 in Calm     84 % 0.00 in
01:26 59.6 °F 54.8 °F 30.22 in Calm     84 % 0.00 in
01:32 59.5 °F 55.0 °F 30.22 in Calm     85 % 0.00 in
01:37 59.4 °F 54.9 °F 30.22 in Calm     85 % 0.00 in
01:42 59.3 °F 54.8 °F 30.22 in Calm     85 % 0.00 in
01:47 59.2 °F 54.7 °F 30.22 in Calm     85 % 0.00 in
01:52 59.1 °F 54.6 °F 30.22 in Calm     85 % 0.00 in
01:57 59.0 °F 54.8 °F 30.22 in Calm     86 % 0.00 in
02:02 59.0 °F 55.1 °F 30.22 in Calm     87 % 0.00 in
02:07 58.9 °F 55.0 °F 30.22 in SE 0.1 mph   87 % 0.00 in
02:12 58.9 °F 55.0 °F 30.22 in Calm     87 % 0.00 in
02:17 58.8 °F 54.9 °F 30.21 in Calm     87 % 0.00 in
02:22 58.8 °F 54.9 °F 30.21 in Calm     87 % 0.00 in
02:27 58.7 °F 55.2 °F 30.20 in SE 0.5 mph 1.2 mph 88 % 0.00 in
02:32 58.7 °F 55.2 °F 30.20 in SE 0.2 mph 1.2 mph 88 % 0.00 in
02:37 58.6 °F 55.1 °F 30.20 in SE 0.5 mph 2.3 mph 88 % 0.00 in
02:42 58.6 °F 55.4 °F 30.19 in Calm   1.2 mph 89 % 0.00 in
02:47 58.6 °F 55.4 °F 30.20 in SE 0.7 mph 2.3 mph 89 % 0.00 in
02:52 58.6 °F 55.7 °F 30.19 in Calm     90 % 0.00 in
02:57 58.7 °F 55.8 °F 30.19 in Calm     90 % 0.00 in
03:02 58.6 °F 55.7 °F 30.19 in SE 0.8 mph 1.2 mph 90 % 0.00 in
03:07 58.7 °F 56.1 °F 30.19 in SE 0.1 mph 1.2 mph 91 % 0.00 in
03:13 58.7 °F 56.1 °F 30.19 in Calm   1.2 mph 91 % 0.00 in
03:18 58.7 °F 56.1 °F 30.19 in SE 0.4 mph 1.2 mph 91 % 0.00 in
03:23 58.7 °F 56.1 °F 30.19 in Calm     91 % 0.00 in
03:28 58.7 °F 56.1 °F 30.19 in Calm   1.2 mph 91 % 0.00 in
03:33 58.7 °F 56.1 °F 30.19 in SE 0.5 mph 2.3 mph 91 % 0.00 in
03:38 58.6 °F 56.0 °F 30.19 in SE 0.3 mph 2.3 mph 91 % 0.00 in
03:43 58.6 °F 56.0 °F 30.19 in Calm   1.2 mph 91 % 0.00 in
03:48 58.6 °F 56.0 °F 30.19 in Calm     91 % 0.00 in
03:53 58.6 °F 56.0 °F 30.19 in Calm     91 % 0.00 in
03:58 58.5 °F 55.9 °F 30.20 in Calm     91 % 0.00 in
04:03 58.5 °F 55.9 °F 30.20 in Calm     91 % 0.00 in
04:08 58.5 °F 55.9 °F 30.20 in Calm     91 % 0.00 in
04:13 58.4 °F 55.8 °F 30.20 in Calm     91 % 0.00 in
04:18 58.4 °F 55.8 °F 30.20 in Calm     91 % 0.00 in
04:23 58.4 °F 55.8 °F 30.20 in Calm     91 % 0.00 in
04:29 58.4 °F 56.1 °F 30.20 in Calm     92 % 0.00 in
04:34 58.4 °F 56.1 °F 30.20 in Calm     92 % 0.00 in
04:39 58.3 °F 56.0 °F 30.20 in Calm     92 % 0.00 in
04:44 58.3 °F 56.0 °F 30.20 in Calm     92 % 0.00 in
04:49 58.3 °F 56.0 °F 30.21 in Calm     92 % 0.00 in
04:54 58.2 °F 55.9 °F 30.21 in Calm   1.2 mph 92 % 0.00 in
04:59 58.1 °F 55.8 °F 30.21 in Calm     92 % 0.00 in
05:04 58.1 °F 55.5 °F 30.21 in Calm     91 % 0.00 in
05:09 58.0 °F 55.4 °F 30.21 in Calm     91 % 0.00 in
05:14 58.0 °F 55.4 °F 30.22 in Calm     91 % 0.00 in
05:19 57.9 °F 55.3 °F 30.22 in Calm     91 % 0.00 in
05:24 57.8 °F 55.2 °F 30.22 in Calm     91 % 0.00 in
05:29 57.7 °F 55.1 °F 30.22 in Calm     91 % 0.00 in
05:34 57.6 °F 55.0 °F 30.22 in Calm     91 % 0.00 in
05:39 57.5 °F 54.9 °F 30.21 in Calm     91 % 0.00 in
05:44 57.5 °F 54.9 °F 30.21 in Calm     91 % 0.00 in
05:49 57.4 °F 54.8 °F 30.21 in Calm     91 % 0.00 in
05:54 57.3 °F 54.7 °F 30.22 in Calm   1.2 mph 91 % 0.00 in
06:00 57.3 °F 54.7 °F 30.22 in Calm   1.2 mph 91 % 0.00 in
06:05 57.2 °F 54.6 °F 30.22 in Calm   1.2 mph 91 % 0.00 in
06:10 57.2 °F 54.6 °F 30.22 in Calm   2.3 mph 91 % 0.00 in
06:15 57.1 °F 54.8 °F 30.22 in SE 0.4 mph 2.3 mph 92 % 0.00 in
06:20 57.1 °F 54.8 °F 30.22 in Calm   1.2 mph 92 % 0.00 in
06:25 57.1 °F 54.8 °F 30.23 in Calm   1.2 mph 92 % 0.00 in
06:30 57.1 °F 54.8 °F 30.23 in SE 0.3 mph 2.3 mph 92 % 0.00 in
06:35 57.1 °F 55.1 °F 30.23 in Calm     93 % 0.00 in
06:38 57.1 °F 55.1 °F 30.23 in Calm     93 % 0.00 in
06:43 57.2 °F 55.2 °F 30.23 in Calm     93 % 0.00 in
06:48 57.2 °F 55.5 °F 30.23 in Calm     94 % 0.00 in
06:53 57.3 °F 55.6 °F 30.23 in SE 0.7 mph 2.3 mph 94 % 0.00 in
06:58 57.5 °F 55.8 °F 30.24 in Calm     94 % 0.00 in
07:03 57.6 °F 56.2 °F 30.24 in SE 0.1 mph 1.0 mph 95 % 0.00 in
07:08 57.9 °F 56.5 °F 30.25 in Calm     95 % 0.00 in
07:13 58.2 °F 56.8 °F 30.25 in Calm     95 % 0.00 in
07:18 58.6 °F 57.5 °F 30.25 in NE 0.7 mph 2.3 mph 96 % 0.00 in
07:23 59.3 °F 58.2 °F 30.25 in ENE 1.1 mph 3.5 mph 96 % 0.00 in
07:28 59.9 °F 58.8 °F 30.25 in NE 2.3 mph 3.5 mph 96 % 0.00 in
07:33 60.4 °F 59.5 °F 30.26 in NE 2.1 mph 4.0 mph 97 % 0.00 in
07:38 61.0 °F 60.1 °F 30.26 in ENE 1.5 mph 3.5 mph 97 % 0.00 in
07:43 61.4 °F 60.5 °F 30.26 in ENE 1.4 mph 4.0 mph 97 % 0.00 in
07:48 61.7 °F 60.8 °F 30.26 in ENE 1.0 mph 2.3 mph 97 % 0.00 in
07:53 62.1 °F 61.2 °F 30.27 in ENE 1.3 mph 4.6 mph 97 % 0.00 in
07:58 62.4 °F 61.2 °F 30.27 in NE 1.4 mph 6.9 mph 96 % 0.00 in
08:03 62.7 °F 61.5 °F 30.27 in ENE 0.2 mph 3.5 mph 96 % 0.00 in
08:08 63.0 °F 61.8 °F 30.27 in NE 1.8 mph 3.5 mph 96 % 0.00 in
08:13 63.3 °F 61.8 °F 30.27 in NE 1.2 mph 4.6 mph 95 % 0.00 in
08:18 63.7 °F 61.9 °F 30.28 in NNE 2.1 mph 8.1 mph 94 % 0.00 in
08:24 64.0 °F 61.9 °F 30.28 in ENE 0.8 mph 3.5 mph 93 % 0.00 in
08:29 64.4 °F 62.0 °F 30.28 in ENE 1.6 mph 5.8 mph 92 % 0.00 in
08:34 64.8 °F 61.8 °F 30.28 in ENE 4.2 mph 9.2 mph 90 % 0.00 in
08:39 65.1 °F 61.5 °F 30.27 in ENE 3.7 mph 6.9 mph 88 % 0.00 in
08:44 65.4 °F 61.4 °F 30.27 in NE 3.8 mph 6.9 mph 87 % 0.00 in
08:49 65.7 °F 61.4 °F 30.27 in ENE 4.1 mph 8.1 mph 86 % 0.00 in
08:54 66.0 °F 61.4 °F 30.27 in NNE 3.8 mph 6.9 mph 85 % 0.00 in
08:59 66.2 °F 61.2 °F 30.27 in NE 4.5 mph 6.9 mph 84 % 0.00 in
09:04 66.4 °F 61.1 °F 30.28 in ENE 2.8 mph 4.6 mph 83 % 0.00 in
09:09 66.6 °F 61.3 °F 30.28 in ENE 1.1 mph 2.3 mph 83 % 0.00 in
09:14 66.9 °F 61.6 °F 30.28 in NE 2.0 mph 4.0 mph 83 % 0.00 in
09:19 67.0 °F 61.3 °F 30.27 in ENE 3.8 mph 4.6 mph 82 % 0.00 in
09:24 67.2 °F 61.5 °F 30.27 in ENE 3.2 mph 4.6 mph 82 % 0.00 in
09:29 67.3 °F 60.9 °F 30.27 in ENE 2.3 mph 4.6 mph 80 % 0.00 in
09:34 67.6 °F 61.2 °F 30.27 in ENE 3.0 mph 6.9 mph 80 % 0.00 in
09:39 67.7 °F 61.0 °F 30.27 in NE 3.6 mph 6.9 mph 79 % 0.00 in
09:44 68.0 °F 61.6 °F 30.27 in NE 4.5 mph 4.6 mph 80 % 0.00 in
09:49 68.5 °F 61.0 °F 30.28 in NE 5.1 mph 7.0 mph 77 % 0.00 in
09:54 69.0 °F 61.5 °F 30.28 in ENE 2.9 mph 6.9 mph 77 % 0.00 in
09:59 69.5 °F 61.2 °F 30.28 in NE 2.3 mph 8.1 mph 75 % 0.00 in
10:04 70.1 °F 61.4 °F 30.28 in ENE 2.7 mph 5.8 mph 74 % 0.00 in
10:09 70.5 °F 61.0 °F 30.28 in NNE 3.3 mph 8.1 mph 72 % 0.00 in
10:14 70.6 °F 60.7 °F 30.28 in NE 2.5 mph 8.1 mph 71 % 0.00 in
10:19 70.6 °F 60.7 °F 30.28 in NE 2.5 mph 9.2 mph 71 % 0.00 in
10:24 70.6 °F 61.5 °F 30.27 in ENE 2.4 mph 6.9 mph 73 % 0.00 in
10:29 70.7 °F 61.2 °F 30.27 in ENE 2.9 mph 4.6 mph 72 % 0.00 in
10:34 70.6 °F 60.3 °F 30.26 in ENE 5.6 mph 9.2 mph 70 % 0.00 in
10:39 70.6 °F 60.7 °F 30.27 in NE 2.3 mph 3.5 mph 71 % 0.00 in
10:44 70.6 °F 60.7 °F 30.27 in NE 3.2 mph 4.6 mph 71 % 0.00 in
10:49 70.7 °F 60.0 °F 30.26 in ENE 1.8 mph 3.5 mph 69 % 0.00 in
10:54 70.9 °F 60.2 °F 30.26 in ENE 3.0 mph 3.5 mph 69 % 0.00 in
10:59 71.2 °F 59.7 °F 30.26 in ENE 3.5 mph 6.9 mph 67 % 0.00 in
11:04 71.5 °F 60.8 °F 30.26 in ENE 1.7 mph 3.5 mph 69 % 0.00 in
11:10 71.9 °F 59.9 °F 30.26 in ENE 2.7 mph 8.1 mph 66 % 0.00 in
11:15 72.4 °F 60.4 °F 30.26 in ENE 3.5 mph 6.9 mph 66 % 0.00 in
11:20 73.1 °F 60.2 °F 30.27 in ENE 3.8 mph 6.9 mph 64 % 0.00 in
11:25 73.6 °F 60.2 °F 30.26 in ENE 2.0 mph 9.2 mph 63 % 0.00 in
11:30 74.1 °F 61.1 °F 30.27 in ENE 1.6 mph 3.5 mph 64 % 0.00 in
11:35 74.2 °F 60.8 °F 30.26 in ENE 1.4 mph 3.5 mph 63 % 0.00 in
11:40 74.0 °F 59.2 °F 30.26 in ENE 4.5 mph 10.4 mph 60 % 0.00 in
11:45 74.0 °F 59.2 °F 30.25 in NE 1.5 mph 3.5 mph 60 % 0.00 in
11:50 73.9 °F 59.6 °F 30.25 in ENE 4.2 mph 8.1 mph 61 % 0.00 in
11:55 73.6 °F 58.9 °F 30.25 in ENE 2.3 mph 4.0 mph 60 % 0.00 in
12:00 73.5 °F 59.7 °F 30.25 in ENE 1.6 mph 3.5 mph 62 % 0.00 in
12:05 73.8 °F 60.0 °F 30.25 in ENE 1.5 mph 4.0 mph 62 % 0.00 in
12:10 74.2 °F 58.5 °F 30.25 in ENE 3.3 mph 8.1 mph 58 % 0.00 in
12:15 74.6 °F 57.9 °F 30.25 in ENE 2.7 mph 4.6 mph 56 % 0.00 in
12:20 74.9 °F 58.6 °F 30.25 in ENE 2.2 mph 5.0 mph 57 % 0.00 in
12:25 75.5 °F 58.2 °F 30.25 in ENE 3.5 mph 7.0 mph 55 % 0.00 in
12:30 76.0 °F 58.7 °F 30.25 in ENE 2.7 mph 3.5 mph 55 % 0.00 in
12:35 76.7 °F 58.3 °F 30.25 in ENE 3.8 mph 5.8 mph 53 % 0.00 in
12:40 76.9 °F 57.4 °F 30.25 in NE 4.2 mph 6.0 mph 51 % 0.00 in
12:45 76.9 °F 57.9 °F 30.25 in ENE 2.4 mph 5.8 mph 52 % 0.00 in
12:50 76.6 °F 58.2 °F 30.24 in ENE 4.7 mph 6.9 mph 53 % 0.00 in
12:55 76.6 °F 58.7 °F 30.24 in ENE 2.4 mph 3.5 mph 54 % 0.00 in
13:00 76.8 °F 58.9 °F 30.24 in NE 2.6 mph 4.6 mph 54 % 0.00 in
13:05 77.1 °F 59.2 °F 30.24 in ENE 2.7 mph 9.2 mph 54 % 0.00 in
13:10 77.4 °F 57.3 °F 30.24 in ENE 5.7 mph 9.2 mph 50 % 0.00 in
13:15 77.1 °F 57.6 °F 30.24 in East 3.2 mph 5.8 mph 51 % 0.00 in
13:20 77.0 °F 59.1 °F 30.24 in ENE 2.5 mph 8.1 mph 54 % 0.00 in
13:25 77.1 °F 58.1 °F 30.24 in ENE 2.9 mph 5.8 mph 52 % 0.00 in
13:30 77.0 °F 59.1 °F 30.24 in ENE 1.9 mph 3.5 mph 54 % 0.00 in
13:35 76.9 °F 57.9 °F 30.24 in ENE 4.5 mph 9.2 mph 52 % 0.00 in
13:40 76.6 °F 57.7 °F 30.24 in ENE 2.3 mph 5.8 mph 52 % 0.00 in
13:45 76.7 °F 57.7 °F 30.24 in ENE 3.0 mph 6.9 mph 52 % 0.00 in
13:50 76.6 °F 56.0 °F 30.24 in East 3.4 mph 7.0 mph 49 % 0.00 in
13:56 76.6 °F 56.6 °F 30.24 in ENE 2.0 mph 7.0 mph 50 % 0.00 in
14:01 76.6 °F 57.7 °F 30.24 in ENE 2.4 mph 8.1 mph 52 % 0.00 in
14:06 76.4 °F 57.5 °F 30.24 in East 3.2 mph 3.5 mph 52 % 0.00 in
14:11 76.2 °F 58.4 °F 30.24 in ENE 2.0 mph 6.0 mph 54 % 0.00 in
14:16 76.2 °F 56.7 °F 30.24 in ENE 3.0 mph 8.0 mph 51 % 0.00 in
14:21 76.3 °F 56.8 °F 30.24 in ENE 5.0 mph 7.0 mph 51 % 0.00 in
14:25 76.4 °F 56.4 °F 30.24 in ENE 2.1 mph 4.6 mph 50 % 0.00 in
14:30 76.5 °F 56.5 °F 30.24 in East 2.4 mph 3.5 mph 50 % 0.00 in
14:36 76.7 °F 55.0 °F 30.23 in ENE 2.0 mph 6.0 mph 47 % 0.00 in
14:41 76.5 °F 54.8 °F 30.24 in ENE 3.0 mph 6.0 mph 47 % 0.00 in
14:46 76.5 °F 53.6 °F 30.24 in ENE 2.0 mph 5.0 mph 45 % 0.00 in
14:51 76.3 °F 54.6 °F 30.23 in ENE 2.0 mph 7.0 mph 47 % 0.00 in
14:56 76.1 °F 54.4 °F 30.23 in ENE 2.0 mph 10.0 mph 47 % 0.00 in
15:01 76.1 °F 54.4 °F 30.23 in East 2.0 mph 3.5 mph 47 % 0.00 in
15:06 76.2 °F 53.9 °F 30.23 in ENE 1.7 mph 3.5 mph 46 % 0.00 in
15:11 76.2 °F 54.5 °F 30.23 in ENE 1.7 mph 3.5 mph 47 % 0.00 in
15:16 76.1 °F 54.4 °F 30.23 in East 2.2 mph 4.6 mph 47 % 0.00 in
15:21 76.0 °F 52.5 °F 30.22 in East 2.1 mph 3.5 mph 44 % 0.00 in
15:26 75.8 °F 52.9 °F 30.22 in ESE 1.8 mph 3.5 mph 45 % 0.00 in
15:31 75.8 °F 52.9 °F 30.22 in East 1.7 mph 3.5 mph 45 % 0.00 in
15:36 75.7 °F 53.4 °F 30.22 in East 2.1 mph 4.6 mph 46 % 0.00 in
15:41 75.5 °F 53.3 °F 30.21 in East 1.5 mph 2.3 mph 46 % 0.00 in
15:46 75.4 °F 52.6 °F 30.21 in East 1.8 mph 3.5 mph 45 % 0.00 in
15:51 75.4 °F 53.2 °F 30.21 in East 2.1 mph 3.5 mph 46 % 0.00 in
15:56 75.3 °F 52.5 °F 30.21 in East 1.4 mph 3.5 mph 45 % 0.00 in
16:01 75.3 °F 51.3 °F 30.21 in East 1.2 mph 5.8 mph 43 % 0.00 in
16:06 75.4 °F 53.2 °F 30.21 in East 1.3 mph 3.0 mph 46 % 0.00 in
16:11 75.3 °F 51.3 °F 30.22 in ESE 1.9 mph 3.5 mph 43 % 0.00 in
16:16 75.3 °F 51.3 °F 30.21 in ESE 1.4 mph 2.3 mph 43 % 0.00 in
16:21 75.3 °F 52.5 °F 30.21 in ESE 2.1 mph 5.8 mph 45 % 0.00 in
16:26 75.3 °F 51.9 °F 30.22 in East 3.0 mph 8.1 mph 44 % 0.00 in
16:31 75.3 °F 53.1 °F 30.22 in East 2.3 mph 3.5 mph 46 % 0.00 in
16:36 75.3 °F 53.7 °F 30.21 in ESE 1.2 mph 2.3 mph 47 % 0.00 in
16:41 75.4 °F 53.8 °F 30.21 in SE 2.8 mph 4.0 mph 47 % 0.00 in
16:46 75.4 °F 53.8 °F 30.22 in SE 1.0 mph 2.3 mph 47 % 0.00 in
16:51 75.3 °F 54.3 °F 30.22 in ESE 0.2 mph 2.3 mph 48 % 0.00 in
16:56 75.2 °F 55.3 °F 30.22 in ESE 0.6 mph 1.2 mph 50 % 0.00 in
16:57 75.2 °F 55.3 °F 30.21 in ESE 0.5 mph 2.3 mph 50 % 0.00 in
17:02 75.1 °F 54.1 °F 30.22 in SE 0.6 mph 3.5 mph 48 % 0.00 in
17:07 74.9 °F 54.4 °F 30.21 in SE 1.3 mph 3.5 mph 49 % 0.00 in
17:12 74.6 °F 53.6 °F 30.21 in SE 2.8 mph 3.5 mph 48 % 0.00 in
17:17 74.3 °F 54.5 °F 30.21 in ESE 0.3 mph 2.3 mph 50 % 0.00 in
17:22 74.2 °F 54.9 °F 30.21 in ESE 0.5 mph 2.3 mph 51 % 0.00 in
17:27 74.0 °F 55.3 °F 30.21 in ESE 0.3 mph 2.3 mph 52 % 0.00 in
17:32 73.8 °F 55.1 °F 30.21 in ESE 0.5 mph 1.2 mph 52 % 0.00 in
17:37 73.7 °F 55.5 °F 30.21 in ESE 0.4 mph 1.2 mph 53 % 0.00 in
17:42 73.6 °F 55.4 °F 30.21 in ESE 0.8 mph 1.2 mph 53 % 0.00 in
17:47 73.5 °F 55.3 °F 30.21 in SE 0.6 mph 3.5 mph 53 % 0.00 in
17:48 73.6 °F 55.4 °F 30.22 in SE 0.4 mph 3.5 mph 53 % 0.00 in
17:53 73.5 °F 55.8 °F 30.22 in SE 2.4 mph 4.6 mph 54 % 0.00 in
17:58 73.4 °F 56.7 °F 30.22 in SE 0.7 mph 2.3 mph 56 % 0.00 in
18:03 73.2 °F 56.6 °F 30.22 in SE 0.1 mph 1.2 mph 56 % 0.00 in
18:08 73.1 °F 57.0 °F 30.22 in SE 0.5 mph 2.3 mph 57 % 0.00 in
18:13 73.0 °F 56.9 °F 30.22 in SE 0.3 mph 2.3 mph 57 % 0.00 in
18:18 72.8 °F 57.2 °F 30.22 in SE 0.8 mph 2.3 mph 58 % 0.00 in
18:23 72.6 °F 56.5 °F 30.22 in SE 0.6 mph 2.3 mph 57 % 0.00 in
18:28 72.5 °F 56.9 °F 30.22 in ESE 0.4 mph 2.3 mph 58 % 0.00 in
18:33 72.4 °F 57.3 °F 30.22 in ESE 0.1 mph 3.5 mph 59 % 0.00 in
18:38 72.1 °F 56.5 °F 30.22 in SE 1.7 mph 3.5 mph 58 % 0.00 in
18:43 71.9 °F 56.8 °F 30.22 in SE 0.4 mph 2.3 mph 59 % 0.00 in
18:48 71.7 °F 56.6 °F 30.22 in SE 1.1 mph 2.3 mph 59 % 0.00 in
18:53 71.5 °F 56.4 °F 30.22 in SE 0.2 mph 1.2 mph 59 % 0.00 in
18:58 71.3 °F 56.7 °F 30.23 in Calm     60 % 0.00 in
19:03 71.2 °F 56.6 °F 30.23 in Calm     60 % 0.00 in
19:08 70.9 °F 56.8 °F 30.23 in SE 0.4 mph 1.0 mph 61 % 0.00 in
19:13 70.7 °F 56.6 °F 30.23 in SE 1.4 mph 2.0 mph 61 % 0.00 in
19:18 70.4 °F 56.3 °F 30.23 in SE 1.5 mph 2.3 mph 61 % 0.00 in
19:23 70.1 °F 56.0 °F 30.23 in SE 0.3 mph 1.2 mph 61 % 0.00 in
19:28 69.9 °F 55.8 °F 30.23 in SE 0.3 mph 1.2 mph 61 % 0.00 in
19:33 69.6 °F 56.0 °F 30.23 in SE 0.6 mph 1.2 mph 62 % 0.00 in
19:38 69.4 °F 56.3 °F 30.23 in SE 1.3 mph 2.3 mph 63 % 0.00 in
19:43 69.1 °F 56.4 °F 30.23 in SE 1.5 mph 3.5 mph 64 % 0.00 in
19:48 68.8 °F 56.6 °F 30.23 in SE 0.6 mph 2.3 mph 65 % 0.00 in
19:54 68.4 °F 56.2 °F 30.23 in SE 0.7 mph 2.3 mph 65 % 0.00 in
19:59 68.2 °F 56.4 °F 30.23 in SE 1.3 mph 3.5 mph 66 % 0.00 in
20:04 67.9 °F 56.5 °F 30.23 in SE 0.6 mph 3.5 mph 67 % 0.00 in
20:09 67.6 °F 56.7 °F 30.23 in SE 1.0 mph 2.3 mph 68 % 0.00 in
20:14 67.3 °F 56.4 °F 30.23 in SE 0.4 mph 2.3 mph 68 % 0.00 in
20:19 67.1 °F 56.2 °F 30.23 in Calm   1.2 mph 68 % 0.00 in
20:24 66.8 °F 55.9 °F 30.23 in SE 0.7 mph 1.2 mph 68 % 0.00 in
20:29 66.6 °F 56.1 °F 30.23 in Calm   1.2 mph 69 % 0.00 in
20:34 66.4 °F 56.3 °F 30.23 in Calm     70 % 0.00 in
20:39 66.1 °F 56.0 °F 30.23 in Calm     70 % 0.00 in
20:44 65.9 °F 56.2 °F 30.23 in Calm     71 % 0.00 in
20:49 65.7 °F 56.0 °F 30.23 in Calm     71 % 0.00 in
20:54 65.4 °F 56.1 °F 30.23 in Calm     72 % 0.00 in
20:59 65.2 °F 56.3 °F 30.23 in Calm   1.2 mph 73 % 0.00 in
21:04 65.0 °F 56.5 °F 30.23 in Calm     74 % 0.00 in
21:09 64.8 °F 55.9 °F 30.23 in Calm     73 % 0.00 in
21:14 64.7 °F 56.2 °F 30.23 in Calm     74 % 0.00 in
21:19 64.5 °F 56.0 °F 30.23 in Calm     74 % 0.00 in
21:24 64.4 °F 55.9 °F 30.24 in Calm   1.0 mph 74 % 0.00 in
21:29 64.2 °F 56.1 °F 30.24 in SE 0.1 mph 1.2 mph 75 % 0.00 in
21:34 64.1 °F 56.0 °F 30.24 in SE 0.3 mph 1.2 mph 75 % 0.00 in
21:40 63.9 °F 56.2 °F 30.24 in Calm     76 % 0.00 in
21:45 63.8 °F 56.1 °F 30.23 in Calm   1.2 mph 76 % 0.00 in
21:50 63.7 °F 56.0 °F 30.23 in Calm     76 % 0.00 in
21:55 63.5 °F 56.5 °F 30.23 in Calm     78 % 0.00 in
22:00 63.4 °F 56.8 °F 30.22 in Calm   1.2 mph 79 % 0.00 in
22:05 63.2 °F 56.6 °F 30.22 in SE 0.1 mph 1.2 mph 79 % 0.00 in
22:10 63.1 °F 56.8 °F 30.22 in Calm   1.2 mph 80 % 0.00 in
22:15 63.1 °F 56.8 °F 30.22 in SE 0.3 mph 1.2 mph 80 % 0.00 in
22:20 63.0 °F 57.1 °F 30.22 in SE 0.1 mph 1.2 mph 81 % 0.00 in
22:25 62.9 °F 57.0 °F 30.22 in SE 0.1 mph 1.2 mph 81 % 0.00 in
22:30 62.9 °F 57.0 °F 30.22 in SE 0.1 mph 2.3 mph 81 % 0.00 in
22:35 62.9 °F 57.0 °F 30.22 in Calm   1.2 mph 81 % 0.00 in
22:40 63.0 °F 57.4 °F 30.22 in SE 0.3 mph 1.2 mph 82 % 0.00 in
22:45 63.0 °F 57.4 °F 30.22 in Calm   1.2 mph 82 % 0.00 in
22:50 63.0 °F 57.4 °F 30.22 in SE 0.4 mph 1.2 mph 82 % 0.00 in
22:55 63.0 °F 57.4 °F 30.22 in SE 0.2 mph 1.2 mph 82 % 0.00 in
23:01 63.0 °F 57.4 °F 30.22 in Calm   1.2 mph 82 % 0.00 in
23:05 63.0 °F 57.4 °F 30.22 in Calm     82 % 0.00 in
23:11 63.0 °F 57.4 °F 30.22 in Calm   1.2 mph 82 % 0.00 in
23:17 63.0 °F 57.4 °F 30.22 in SE 0.1 mph 1.2 mph 82 % 0.00 in
23:22 63.0 °F 57.4 °F 30.22 in Calm   1.2 mph 82 % 0.00 in
23:25 63.0 °F 57.8 °F 30.22 in Calm   1.2 mph 83 % 0.00 in
23:26 63.0 °F 57.8 °F 30.22 in SE 0.1 mph 1.2 mph 83 % 0.00 in
23:29 62.9 °F 57.7 °F 30.22 in SE 0.1 mph 1.2 mph 83 % 0.00 in
23:31 62.9 °F 57.7 °F 30.22 in Calm     83 % 0.00 in
23:36 62.9 °F 57.7 °F 30.22 in Calm   1.2 mph 83 % 0.00 in
23:41 62.9 °F 57.7 °F 30.22 in Calm     83 % 0.00 in
23:46 62.8 °F 57.6 °F 30.22 in SE 0.4 mph 1.2 mph 83 % 0.00 in
23:51 62.7 °F 57.5 °F 30.22 in SE 0.1 mph 1.2 mph 83 % 0.00 in
23:56 62.7 °F 57.5 °F 30.22 in SE 0.3 mph 1.2 mph 83 % 0.00 in
Crab Meadow Weather
Compliments of Weather Underground - 3 mb

Script developed by  Jim McMurry - jmcmurry@mwt.net Adapted for the template by  Wim van der Kuil - Leuven-Template.eu

Extremes: By average annual rainfall, the wettest place in the world is Mawslynram, in Meghalaya State, India with 467 1/2 inches per annum.